BEIDOU-3 M27 (C49)

Last updated on Tue Aug 25 2026 00:03:26 GMT+0000 (Coordinated Universal Time)

1 61187U 24168C 26235.49701302 -.00000042 00000+0 00000+0 0 9993 2 61187 54.4054 299.8820 0000684 339.0346 101.7223 1.86230476 10511
UTC large
Height (km)
Speed (km/s)
/
Latitude / Longitude
Inclination (degrees)
Orbital Period (minutes)
Azimuth
Elevation
Range (km)
Doppler Factor

Next 0 passes for location: London (51.5072 / 0.1276)

No passes found over London.
BEIDOU-3 M27 (C49)